Weather in Albena

Bulgaria     43°21′58″N   28°04′25″E
temp.,
°C
wind,
m/s
gust,
m/s
humid.,
%
clouds,
%
prec.,
mm/h
press.,
hPa
HPBL,
m
21 june, mon
mon2100:00+19wnw228699 0.0 101227
03:00+18wnw2286100 0.0 101148
06:00+18nw3386100 0.0 101199
09:00+20nnw1180100 0.1 1012177
12:00+22sse217062 0.1 1012730
15:00+22sse437381 0.4 1012511
18:00+23sse217081 0.1 1011571
21:00+19sse118624 0.1 101212
22 june, tue
tue2200:00+18w22874 0.0 101217
03:00+18nw118749 0.0 101211
06:00+18wnw22885 0.0 101127
09:00+22nnw237437 0.0 1012382
12:00+25ese126580 0.0 1012876
15:00+26s236428 0.0 1012795
18:00+24s347678 0.2 1012137
21:00+21ssw12861 0.3 101316
23 june, wed
wed2300:00+21wnw11840 0.0 101211
03:00+20wnw22814 0.0 101214
06:00+20wnw228336 0.0 101219
09:00+25wnw24705 0.0 1013303
12:00+27nnw24655 2.8 10131001
15:00+28n255815 4.2 10131430
18:00+28nne15633 0.4 1013835
21:00+23w118224 0.8 101312
24 june, thu
thu2400:00+22nnw4886100 0.6 1014161
03:00+20nnw229193 0.8 101416
06:00+20wnw22925 0.6 101515
09:00+24nne22795 0.6 1015313
12:00+27ese13633 0.0 1015935
15:00+27e246559 0.0 1015785
18:00+25sse227447 0.5 1015212
21:00+22s22850 0.5 101515
25 june, fri
fri2500:00+22wnw22870 0.0 101615
03:00+22nnw22880 0.0 101511
06:00+22nw22860 0.0 101413
09:00+26nw11700 0.0 1015267
12:00+29ese12601 0.0 10151061
15:00+27sse336838 0.0 1014301
18:00+27s33700 0.0 1014203
21:00+23sse11830 0.2 101411